Probability
3 1 0 0 0 0 0 0 1 1 1 1 2 2 1 4 8 13 16 18 26 39 45 41 34 31 27 22 18 15 15 13 10 7 5 4 2 2 2 1 1 1 1 1
4 3 1 0 0 0 0 0 0 1 2 2 2 2 2 6 10 15 20 24 32 45 53 50 42 37 35 31 26 22 19 15 12 9 8 5 4 4 4 3 2 3 3 3
3 2 1 0 0 0 0 0 0 1 2 4 4 3 5 9 11 14 20 30 41 54 63 62 55 49 45 42 38 31 23 17 15 13 11 8 6 5 6 6 5 5 5 5
1 1 1 0 0 0 1 2 3 4 5 8 8 6 7 12 15 17 24 37 52 61 67 68 65 59 53 48 44 36 27 21 18 16 13 9 7 7 8 8 7 7 7 6
1 0 0 1 1 1 2 7 11 13 14 15 13 11 14 20 24 28 37 50 60 64 65 68 67 63 58 51 45 37 30 25 23 19 15 11 10 11 13 13 11 9 8 9
2 1 1 2 2 2 4 13 24 28 26 23 20 18 23 29 34 40 50 60 64 63 66 71 70 66 62 53 45 39 34 31 28 24 20 17 16 18 19 17 15 11 10 12
2 1 1 2 4 5 10 21 31 33 29 24 21 21 27 34 40 47 55 60 63 64 70 75 74 71 66 58 48 43 39 35 33 29 25 23 25 26 24 20 17 14 13 13
2 2 4 6 6 8 15 23 26 25 21 19 16 18 25 36 45 51 55 56 60 67 74 77 77 74 71 63 55 49 44 40 39 36 28 25 29 31 27 22 17 15 14 13
5 6 9 10 9 8 11 15 15 14 13 12 12 16 26 37 45 50 53 54 58 68 75 76 76 75 72 68 62 55 50 47 46 42 34 28 28 28 25 21 17 13 12 11
6 7 9 10 8 6 7 8 8 9 9 10 14 21 31 38 43 49 53 56 61 69 74 73 72 71 70 69 65 59 54 52 49 44 37 30 26 21 18 17 16 13 11 10
4 4 5 6 6 5 5 7 8 9 9 11 17 26 33 39 45 51 55 58 62 67 69 68 66 66 66 66 64 58 54 50 45 37 31 27 21 14 11 11 12 11 9 9
2 2 2 3 4 4 4 6 10 11 11 12 18 26 32 39 48 53 55 58 61 63 63 63 62 62 62 62 61 56 51 44 34 25 21 19 16 11 7 5 4 4 4 4
1 1 0 1 1 2 3 4 8 12 12 12 15 20 25 34 43 47 48 50 52 53 53 53 54 55 56 56 55 52 45 34 24 18 15 13 12 11 8 4 2 1 1 0
0 0 0 0 0 1 1 2 4 7 9 10 11 14 20 28 33 33 34 37 39 40 40 40 40 41 42 44 45 42 33 23 18 15 13 10 9 9 9 7 6 4 3 1
0 0 0 0 0 1 1 2 2 4 6 8 10 14 19 22 24 23 23 26 29 30 30 29 27 26 27 29 32 30 22 15 13 13 11 8 7 6 5 5 5 6 5 4
0 0 0 0 0 1 3 4 5 6 6 8 11 15 17 18 19 19 19 20 23 24 23 21 19 18 18 19 20 19 15 10 9 10 9 8 6 4 2 2 3 5 6 6
0 0 0 0 0 2 3 5 7 7 7 8 11 13 13 13 13 14 15 17 18 18 17 17 16 15 14 14 13 12 10 7 5 6 7 7 5 3 2 2 2 3 3 3
0 0 0 0 1 2 4 5 5 5 5 7 9 10 11 11 11 11 13 14 14 13 12 12 12 12 12 11 9 8 7 5 4 5 6 6 5 4 3 2 2 1 1 0
0 0 0 1 2 4 4 4 4 3 3 5 7 9 10 11 11 11 12 12 11 11 10 7 6 7 8 7 5 5 4 3 3 4 5 4 4 3 2 1 1 1 0 0
0 1 1 2 4 5 4 4 4 2 2 3 5 7 8 9 9 10 9 9 9 9 7 4 2 3 4 3 2 1 1 1 1 2 3 3 3 3 2 1 1 1 0 0
1 1 2 2 3 3 2 2 1 1 2 2 3 5 7 7 7 7 7 6 7 6 3 2 1 1 1 1 0 0 1 1 0 1 2 3 3 3 3 2 1 1 0 0
0 1 1 1 1 1 1 0 0 1 2 2 2 3 5 6 5 5 5 5 4 3 1 0 0 0 0 0 0 0 0 1 1 1 1 2 2 2 2 1 1 0 0 0
0 0 0 0 0 0 0 0 0 0 1 2 1 2 4 4 2 2 2 3 2 1 0 0 0 0 0 0 0 0 0 0 0 0 1 1 1 1 0 0 0 0 0 0
0 0 0 0 0 0 0 0 0 0 0 1 1 2 2 1 0 0 0 1 1 0 0 0 0 0 0 0 0 0 0 0 0 0 0 0 0 0 0 0 0 0 0 0
0 0 0 0 0 0 0 0 0 0 0 0 1 1 1 0 0 0 0 0 0 0 0 0 0 0 0 0 0 0 0 0 0 0 0 0 0 0 0 0 0 0 0 0
0 0 0 0 0 0 0 0 0 0 0 0 0 0 0 0 0 0 0 0 0 0 0 0 0 0 0 0 0 0 0 0 0 0 0 0 0 0 0 0 0 0 0 0
0 0 0 0 0 0 0 0 0 0 0 0 0 0 0 0 0 0 0 0 0 0 0 0 0 0 0 0 0 0 0 0 0 0 0 0 0 0 0 0 0 0 0 0
Wind_Speed
13 9 8 8 11 15 15 13 11 9 6 7 8 8 8 11 15 16 17 16 15 14 14 13 13 12 13 13 12 11 11 10 9 9 8 7 6 6 6 5 6 5 5 4
13 11 9 10 12 16 15 13 13 13 9 3 6 6 7 10 14 16 17 18 17 16 15 15 14 14 13 12 12 11 11 10 10 9 9 8 7 7 6 6 5 5 5 5
13 12 11 13 15 16 15 14 14 11 5 2 5 7 8 10 13 13 15 16 16 16 15 14 14 12 12 12 11 11 11 10 10 10 9 9 9 8 7 6 5 5 5 5
10 11 14 10 9 11 13 13 12 6 2 2 3 5 7 10 10 11 12 14 15 15 15 15 14 13 12 13 12 12 11 10 11 10 10 9 8 7 7 6 5 5 5 6
8 11 12 11 7 8 6 7 5 3 2 1 1 4 5 6 8 9 10 10 11 13 15 15 15 14 13 13 13 13 12 11 11 11 10 9 8 7 6 6 5 6 6 6
9 10 9 6 7 9 6 5 5 3 2 1 1 3 2 3 6 7 6 8 10 12 13 14 14 14 14 14 14 14 13 12 11 10 10 9 8 7 6 6 6 6 6 6
12 11 7 6 8 8 5 1 6 6 5 4 3 2 3 2 3 5 5 6 8 10 10 12 14 14 14 13 13 12 11 10 9 9 9 8 7 6 6 6 6 6 6 6
7 8 5 6 4 3 2 3 4 5 5 4 3 2 2 3 3 5 5 6 8 8 9 10 12 13 12 11 10 10 10 10 9 9 9 9 7 6 6 6 6 6 6 7
2 2 3 5 2 2 3 4 4 5 5 4 2 2 3 3 3 3 5 5 7 9 9 9 10 11 11 9 9 9 9 9 9 9 7 6 7 8 7 6 7 7 7 7
2 3 5 5 3 4 5 5 5 5 4 3 3 4 4 3 2 2 4 5 6 8 9 8 9 9 9 8 9 9 9 9 8 8 8 6 6 7 7 7 7 7 6 6
4 4 5 4 5 7 5 6 4 4 4 4 5 5 5 4 4 3 4 4 5 6 8 8 8 7 8 8 8 8 8 7 8 8 8 7 7 6 6 6 5 5 5 4
2 2 3 5 7 7 5 5 5 4 4 5 5 5 5 5 4 4 4 5 5 6 6 7 7 7 7 7 8 8 7 7 7 7 6 6 6 6 9 9 8 9 8 6
2 3 4 5 6 6 5 4 4 4 4 5 5 5 5 5 5 6 6 6 6 6 6 6 7 6 6 6 6 6 5 5 4 4 4 5 5 5 5 7 11 12 12 11
3 3 3 4 4 4 4 3 4 6 6 6 7 7 7 7 7 7 7 7 6 7 7 7 7 6 5 5 5 5 4 4 3 3 3 3 3 4 4 4 4 5 10 15
2 2 2 2 3 4 4 5 6 7 7 8 9 9 9 9 9 8 8 8 8 8 7 7 7 6 5 4 4 4 3 2 2 2 2 2 3 4 5 5 4 4 4 5
2 4 5 4 5 6 7 8 7 8 8 9 9 10 10 10 10 9 9 9 9 9 7 7 6 5 4 4 3 2 2 2 2 2 2 3 3 4 4 3 3 4 4 3
3 3 4 5 6 7 7 8 7 8 9 9 9 10 10 10 10 10 10 9 9 8 7 7 6 5 4 3 2 1 1 2 3 3 3 3 2 3 3 3 4 4 4 3
3 4 4 5 6 7 8 8 9 9 8 9 9 10 9 9 9 9 8 9 9 8 8 7 6 5 4 3 2 1 1 2 2 3 3 2 2 3 4 4 5 6 4 4
7 7 8 8 8 8 8 9 10 10 10 9 9 10 9 9 8 7 7 7 7 7 6 5 5 3 3 4 3 1 2 2 2 2 2 2 3 4 5 5 5 5 5 5
9 8 8 8 8 8 8 8 8 8 8 8 8 8 8 8 7 7 6 6 5 4 4 4 3 2 3 3 3 3 3 3 3 3 3 4 4 4 5 5 5 5 5 5
10 9 9 9 9 9 9 8 7 8 7 7 7 7 6 5 5 4 5 5 5 5 3 3 2 3 3 4 5 4 4 3 3 3 3 4 4 4 5 5 5 5 5 5
9 9 10 9 8 8 7 6 7 8 7 7 7 6 6 5 4 4 5 4 4 4 2 2 3 4 5 6 4 4 4 4 4 4 4 4 4 5 5 5 5 5 5 5
8 8 8 7 7 7 6 6 6 6 6 5 5 5 4 3 3 3 3 3 4 4 3 3 4 4 5 5 5 5 5 4 4 4 4 4 5 5 5 5 5 5 5 6
6 6 6 6 6 6 5 5 4 3 3 3 4 3 2 2 2 3 3 3 3 2 3 2 1 3 5 5 5 5 5 4 4 4 4 5 5 5 5 6 6 6 6 8
4 4 5 5 4 4 4 4 3 3 3 3 3 4 3 4 4 4 3 3 2 2 3 2 3 5 5 5 5 5 4 4 5 6 6 5 6 6 5 5 6 6 6 6
3 3 4 3 3 3 3 3 3 3 4 4 4 4 4 3 3 3 3 3 4 4 4 3 2 3 4 4 5 5 5 4 4 5 6 6 6 6 6 6 8 6 7 7
2 3 2 2 3 3 4 4 4 4 4 4 4 5 5 4 4 5 5 4 4 5 5 5 5 5 4 5 5 5 5 5 5 6 6 5 5 5 5 6 6 6 6 7
Wind_Direction
266 257 250 256 271 277 277 270 268 271 250 197 197 208 188 176 168 172 173 175 173 169 169 169 169 169 170 173 171 170 171 175 170 170 169 175 175 173 179 192 203 195 202 211
277 262 248 252 253 258 265 265 265 264 264 213 178 193 178 182 177 177 177 179 178 174 171 171 172 173 173 172 170 168 173 177 169 171 174 179 181 182 185 195 211 205 208 219
275 270 265 250 242 243 249 249 248 253 260 211 172 171 179 192 183 180 180 180 179 177 174 173 174 172 173 171 167 170 176 177 171 176 180 184 190 187 191 195 204 215 218 226
269 269 259 257 254 257 252 247 252 257 240 237 189 182 189 183 179 180 185 182 179 177 174 173 172 169 171 170 170 174 178 179 175 180 184 183 190 189 190 193 202 211 220 228
262 263 269 277 287 284 275 278 285 275 221 196 188 200 173 166 174 176 185 179 175 177 176 171 171 170 171 174 175 178 182 183 180 181 184 184 190 192 191 196 206 214 221 226
247 257 261 289 324 328 310 272 356 21 36 22 172 220 128 137 165 166 170 168 170 175 173 168 168 167 172 178 179 185 186 185 181 180 184 187 189 189 193 198 211 222 227 224
241 249 260 300 323 330 283 262 352 14 46 43 45 9 37 67 129 147 156 166 165 164 167 165 163 164 174 180 184 183 180 177 176 177 182 185 185 184 190 201 214 226 238 236
247 247 255 338 347 6 327 5 5 5 27 33 28 24 58 78 102 133 144 164 164 155 152 154 159 164 174 180 175 170 170 172 173 173 187 189 183 187 195 208 217 225 235 246
266 264 341 343 357 302 317 347 357 14 12 12 36 56 81 84 91 129 143 159 159 151 145 150 158 165 174 171 161 162 165 169 170 173 187 187 183 192 199 208 226 234 232 237
293 287 306 312 341 351 357 352 350 9 12 9 46 64 80 91 90 105 135 148 147 146 148 150 157 163 168 162 161 163 167 168 168 172 186 195 192 199 207 214 221 233 241 245
261 280 307 331 345 344 351 348 357 24 22 31 52 63 74 77 68 71 88 105 119 135 144 147 149 154 159 154 155 162 166 170 176 187 191 197 200 209 215 223 225 230 246 255
274 329 318 314 326 330 345 1 6 27 37 47 59 67 70 77 79 81 90 93 104 117 131 138 140 145 150 153 159 166 175 180 188 195 193 198 205 216 221 227 225 224 231 244
315 314 313 309 321 336 351 4 12 35 50 63 70 81 83 83 84 86 87 90 98 108 114 121 126 129 141 151 157 166 172 174 186 193 191 196 206 214 229 230 234 242 244 244
352 339 338 329 350 355 345 16 42 52 56 68 74 78 80 83 88 90 93 94 99 100 99 104 109 109 110 120 131 144 161 165 179 181 187 203 217 227 234 243 239 239 237 235
344 329 333 353 18 19 20 45 53 58 61 71 80 81 81 82 84 84 83 89 91 93 94 97 98 96 98 113 123 144 167 179 186 202 215 226 237 243 246 247 254 257 256 233
356 20 23 30 35 34 36 52 62 66 68 71 76 81 83 83 81 80 80 82 85 87 87 88 88 92 98 109 117 130 150 151 168 231 243 244 250 258 265 269 274 278 280 279
26 35 32 35 41 42 48 53 65 72 71 74 77 82 84 86 84 81 79 79 78 77 77 78 78 82 86 89 109 152 178 175 201 235 249 257 263 268 276 282 281 281 283 287
54 63 64 64 61 52 50 55 65 71 73 75 77 81 84 86 87 88 88 88 85 76 69 64 58 58 58 42 31 358 289 248 225 236 250 270 285 286 281 277 279 285 284 281
67 77 75 69 66 61 56 52 56 60 60 63 70 74 74 75 77 80 83 85 87 83 71 66 62 56 63 42 5 311 290 283 277 269 269 250 256 269 275 280 284 286 291 297
60 66 74 74 69 67 65 62 60 59 59 59 65 71 73 74 78 81 79 74 66 68 74 71 71 56 50 33 338 307 302 302 301 298 286 276 273 276 282 290 300 307 315 318
58 59 65 66 62 59 56 53 56 59 59 61 66 68 69 71 77 81 85 82 68 51 47 64 56 33 24 347 306 301 305 310 307 302 305 310 308 307 309 316 319 319 321 321
57 58 61 63 62 60 58 58 61 63 59 57 62 64 64 58 61 71 79 79 85 59 31 48 56 37 5 331 313 312 309 307 304 307 313 314 314 315 316 321 321 321 326 327
52 51 52 55 58 59 56 59 63 66 63 60 60 53 46 47 44 49 63 64 72 51 7 32 54 26 340 316 312 312 312 313 317 321 321 319 319 319 320 321 323 325 325 323
49 44 42 50 57 56 53 52 47 52 58 62 64 57 38 44 45 53 64 88 74 22 354 46 359 318 304 299 309 317 326 334 337 335 331 330 328 328 332 331 328 330 327 323
55 53 45 40 43 45 39 29 30 32 35 50 54 48 29 32 30 24 10 14 30 325 317 278 254 274 288 312 326 334 342 354 349 335 324 322 318 320 323 324 323 319 316 314
38 42 48 36 37 22 13 18 22 22 18 19 23 29 23 19 3 343 327 325 329 314 308 320 310 285 300 319 332 338 338 336 330 324 330 329 326 329 330 330 326 324 321 318
55 63 50 23 32 27 16 12 10 11 17 20 7 2 355 350 347 341 335 334 336 332 335 337 335 332 332 341 347 348 347 346 343 339 336 334 335 337 335 330 326 323 318 314